Glendale Luke AFB, AZ

8:43 AM MST on April 30, 2017 (GMT -0700)
Luke Air Force Base

Weather History for KLUF - September, 2013

Change the Weather History Date:

Wednesday, September 25, 2013

  Actual Average Record
Temperature  
Mean Temperature 80 °F -  
Max Temperature 93 °F 98 °F 109 °F (1947)
Min Temperature 67 °F 63 °F 48 °F (1920)
Cooling Degree Days 15    
Growing Degree Days 30 (Base 50)    
Moisture  
Dew Point 43 °F    
Average Humidity 28    
Maximum Humidity 44    
Minimum Humidity 12    
Precipitation  
Precipitation 0.00 in - - ()
Sea Level Pressure  
Sea Level Pressure 29.66 in    
Wind  
Wind Speed 6 mph (SW)    
Max Wind Speed 16 mph    
Max Gust Speed 20 mph    
Visibility 10 miles    
Events      
Averages and records for this station are not official NWS values.
T = Trace of Precipitation, MM = Missing Value Source: NWS Daily Summary

Daily Weather History Graph

Daily Weather History Graph

Search for Another Location

Airport or City:

Trip Planner

Search our weather history database for the weather conditions in past years. The results will help you decide how hot, cold, wet, or windy it might be!

Date:

Astronomy

Sep. 25, 2013 Rise Set
Actual Time 6:19 AM MST 6:21 PM MST
Civil Twilight 5:55 AM MST 6:46 PM MST
Nautical Twilight 5:26 AM MST 7:15 PM MST
Astronomical Twilight 4:57 AM MST 7:44 PM MST
Moon 10:46 PM MST (9/25) 12:13 PM MST (9/25)
Length of Visible Light 12h 51m
Length of Day
12h 01m
Waning Gibbous, 63% of the Moon is Illuminated
Sep 25
Waning Gibbous
Sep 26
Last Quarter
Oct 4
New
Oct 11
First Quarter
Oct 18
Full

Hourly Weather History & Observations

Time (MST) Temp. Dew Point Humidity Pressure Visibility Wind Dir Wind Speed Gust Speed Precip Events Conditions
12:58 AM 72.9 °F 40.5 °F 31% 29.73 in 10.0 mi Calm Calm - N/A   Clear
1:58 AM 75.0 °F 42.1 °F 31% 29.73 in 10.0 mi SW 11.5 mph - N/A   Clear
2:58 AM 72.7 °F 42.3 °F 33% 29.73 in 10.0 mi WSW 9.2 mph - N/A   Clear
3:58 AM 70.5 °F 42.6 °F 36% 29.73 in 10.0 mi ENE 2.3 mph - N/A   Clear
4:58 AM 69.4 °F 43.5 °F 39% 29.73 in 10.0 mi NE 4.6 mph - N/A   Clear
5:58 AM 70.3 °F 47.1 °F 43% 29.73 in 10.0 mi WNW 9.2 mph - N/A   Clear
6:58 AM 67.3 °F 44.4 °F 44% 29.74 in 10.0 mi NNW 3.5 mph - N/A   Clear
7:58 AM 74.5 °F 46.6 °F 37% 29.75 in 10.0 mi Calm Calm - N/A   Clear
8:58 AM 78.8 °F 48.0 °F 34% 29.75 in 10.0 mi Variable 2.3 mph - N/A   Clear
9:58 AM 81.9 °F 46.2 °F 29% 29.75 in 10.0 mi Calm Calm - N/A   Clear
10:58 AM 84.4 °F 46.4 °F 26% 29.73 in 10.0 mi Variable 3.5 mph - N/A   Clear
11:58 AM 87.3 °F 42.3 °F 21% 29.70 in 10.0 mi SW 10.4 mph - N/A   Clear
12:58 PM 89.8 °F 39.6 °F 17% 29.67 in 10.0 mi SSW 13.8 mph - N/A   Clear
1:58 PM 91.8 °F 39.2 °F 16% 29.63 in 10.0 mi SSW 10.4 mph 16.1 mph N/A   Clear
2:58 PM 93.6 °F 36.3 °F 13% 29.61 in 10.0 mi SSW 16.1 mph 19.6 mph N/A   Clear
3:58 PM 93.6 °F 36.0 °F 13% 29.58 in 10.0 mi South 13.8 mph - N/A   Clear
4:58 PM 93.6 °F 34.3 °F 12% 29.56 in 10.0 mi SSW 11.5 mph - N/A   Clear
5:58 PM 91.9 °F 41.7 °F 17% 29.56 in 10.0 mi SW 15.0 mph - 0.00 in   Clear
6:58 PM 87.1 °F 46.8 °F 25% 29.56 in 10.0 mi WSW 9.2 mph - N/A   Clear
7:58 PM 83.8 °F 46.8 °F 27% 29.58 in 10.0 mi WSW 4.6 mph - N/A   Clear
8:58 PM 83.8 °F 45.5 °F 26% 29.58 in 10.0 mi SSW 9.2 mph - N/A   Clear
9:58 PM 82.4 °F 44.1 °F 26% 29.60 in 10.0 mi SSW 10.4 mph - N/A   Clear
10:58 PM 78.1 °F 45.7 °F 32% 29.60 in 10.0 mi SW 9.2 mph - N/A   Clear
11:58 PM 77.0 °F 49.8 °F 38% 29.60 in 10.0 mi SW 8.1 mph - N/A   Clear